Time,TemperatureF,DewpointF,PressureIn,WindDirection,WindDirectionDegrees,WindSpeedMPH,WindSpeedGustMPH,Humidity,HourlyPrecipIn,Conditions,Clouds,dailyrainin,SoftwareType,DateUTC
2013-07-13 00:01:00,86.0,57.0,30.01,WSW,252,1.0,4.0,38,-99.99,,,-99.99,,2013-07-13 06:01:00,
2013-07-13 00:11:00,85.0,57.0,30.01,West,281,0.0,1.0,38,-99.99,,,-99.99,,2013-07-13 06:11:00,
2013-07-13 00:22:00,85.0,57.0,30.01,WSW,246,0.0,2.0,39,-99.99,,,-99.99,,2013-07-13 06:22:00,
2013-07-13 00:32:00,85.0,59.0,30.01,WSW,252,0.0,4.0,41,-99.99,,,-99.99,,2013-07-13 06:32:00,
2013-07-13 00:43:00,84.0,57.0,30.01,North,0,0.0,0.0,40,-99.99,,,-99.99,,2013-07-13 06:43:00,
2013-07-13 00:52:00,84.0,56.0,30.01,North,1,5.0,9.0,39,-99.99,,,-99.99,,2013-07-13 06:52:00,
2013-07-13 01:02:00,84.0,57.0,30.01,NNW,333,2.0,5.0,40,-99.99,,,-99.99,,2013-07-13 07:02:00,
2013-07-13 01:11:00,84.0,58.0,30.01,North,0,0.0,0.0,42,-99.99,,,-99.99,,2013-07-13 07:11:00,
2013-07-13 01:22:00,83.0,57.0,30.01,North,0,0.0,0.0,41,-99.99,,,-99.99,,2013-07-13 07:22:00,
2013-07-13 01:33:00,83.0,58.0,30.01,North,357,3.0,8.0,42,-99.99,,,-99.99,,2013-07-13 07:33:00,
2013-07-13 01:44:00,83.0,58.0,30.01,NNE,24,1.0,4.0,43,-99.99,,,-99.99,,2013-07-13 07:44:00,
2013-07-13 01:53:00,82.0,58.0,30.01,NNE,15,4.0,7.0,44,-99.99,,,-99.99,,2013-07-13 07:53:00,
2013-07-13 02:01:00,82.0,59.0,30.01,North,350,0.0,4.0,45,-99.99,,,-99.99,,2013-07-13 08:01:00,
2013-07-13 02:11:00,82.0,59.0,30.01,North,0,0.0,0.0,46,-99.99,,,-99.99,,2013-07-13 08:11:00,
2013-07-13 02:22:00,81.0,58.0,30.01,North,0,0.0,0.0,46,-99.99,,,-99.99,,2013-07-13 08:22:00,
2013-07-13 02:33:00,81.0,59.0,30.01,NE,38,3.0,6.0,47,-99.99,,,-99.99,,2013-07-13 08:33:00,
2013-07-13 02:43:00,81.0,59.0,30.01,NNE,28,4.0,8.0,47,-99.99,,,-99.99,,2013-07-13 08:43:00,
2013-07-13 02:52:00,80.0,59.0,30.01,North,7,4.0,8.0,48,-99.99,,,-99.99,,2013-07-13 08:52:00,
2013-07-13 03:02:00,80.0,58.0,30.00,North,356,4.0,8.0,47,-99.99,,,-99.99,,2013-07-13 09:02:00,
2013-07-13 03:11:00,80.0,58.0,30.00,NNE,17,2.0,6.0,47,-99.99,,,-99.99,,2013-07-13 09:11:00,
2013-07-13 03:22:00,80.0,58.0,30.00,NNE,25,2.0,6.0,47,-99.99,,,-99.99,,2013-07-13 09:22:00,
2013-07-13 03:33:00,80.0,58.0,30.00,NE,48,5.0,9.0,47,-99.99,,,-99.99,,2013-07-13 09:33:00,
2013-07-13 03:43:00,80.0,59.0,30.00,NE,44,6.0,11.0,48,-99.99,,,-99.99,,2013-07-13 09:43:00,
2013-07-13 03:53:00,79.0,58.0,30.00,NE,34,5.0,8.0,49,-99.99,,,-99.99,,2013-07-13 09:53:00,
2013-07-13 04:01:00,79.0,58.0,30.00,NNE,18,5.0,10.0,49,-99.99,,,-99.99,,2013-07-13 10:01:00,
2013-07-13 04:11:00,79.0,59.0,30.00,NNE,32,5.0,9.0,50,-99.99,,,-99.99,,2013-07-13 10:11:00,
2013-07-13 04:22:00,79.0,59.0,30.00,NE,37,4.0,8.0,51,-99.99,,,-99.99,,2013-07-13 10:22:00,
2013-07-13 04:32:00,79.0,59.0,30.00,NNE,28,1.0,6.0,50,-99.99,,,-99.99,,2013-07-13 10:32:00,
2013-07-13 04:43:00,78.0,58.0,30.00,NE,37,4.0,6.0,50,-99.99,,,-99.99,,2013-07-13 10:43:00,
2013-07-13 04:52:00,78.0,58.0,30.00,NNE,23,3.0,7.0,51,-99.99,,,-99.99,,2013-07-13 10:52:00,
2013-07-13 05:02:00,78.0,58.0,30.00,NNE,25,4.0,6.0,51,-99.99,,,-99.99,,2013-07-13 11:02:00,
2013-07-13 05:11:00,78.0,59.0,30.01,North,359,4.0,7.0,52,-99.99,,,-99.99,,2013-07-13 11:11:00,
2013-07-13 05:22:00,78.0,59.0,30.01,NNE,25,2.0,5.0,52,-99.99,,,-99.99,,2013-07-13 11:22:00,
2013-07-13 05:32:00,78.0,59.0,30.01,NE,46,1.0,4.0,52,-99.99,,,-99.99,,2013-07-13 11:32:00,
2013-07-13 05:42:00,77.0,59.0,30.01,North,0,0.0,0.0,53,-99.99,,,-99.99,,2013-07-13 11:42:00,
2013-07-13 05:52:00,77.0,59.0,30.01,North,0,0.0,0.0,53,-99.99,,,-99.99,,2013-07-13 11:52:00,
2013-07-13 06:02:00,76.0,59.0,30.02,North,0,0.0,0.0,56,-99.99,,,-99.99,,2013-07-13 12:02:00,
2013-07-13 06:12:00,76.0,60.0,30.02,North,0,0.0,0.0,58,-99.99,,,-99.99,,2013-07-13 12:12:00,
2013-07-13 06:22:00,76.0,59.0,30.03,North,0,0.0,0.0,56,-99.99,,,-99.99,,2013-07-13 12:22:00,
2013-07-13 06:32:00,75.0,58.0,30.03,South,176,1.0,2.0,56,-99.99,,,-99.99,,2013-07-13 12:32:00,
2013-07-13 06:43:00,75.0,58.0,30.03,North,0,0.0,0.0,56,-99.99,,,-99.99,,2013-07-13 12:43:00,
2013-07-13 06:52:00,76.0,59.0,30.03,North,0,0.0,0.0,56,-99.99,,,-99.99,,2013-07-13 12:52:00,
2013-07-13 07:01:00,76.0,59.0,30.03,North,0,0.0,0.0,56,-99.99,,,-99.99,,2013-07-13 13:01:00,
2013-07-13 07:11:00,76.0,59.0,30.04,North,0,0.0,0.0,56,-99.99,,,-99.99,,2013-07-13 13:11:00,
2013-07-13 07:22:00,76.0,58.0,30.04,North,0,0.0,0.0,54,-99.99,,,-99.99,,2013-07-13 13:22:00,
2013-07-13 07:32:00,77.0,58.0,30.04,NW,312,0.0,1.0,52,-99.99,,,-99.99,,2013-07-13 13:32:00,
2013-07-13 07:43:00,77.0,58.0,30.04,NW,312,0.0,1.0,52,-99.99,,,-99.99,,2013-07-13 13:43:00,
2013-07-13 07:53:00,79.0,59.0,30.04,NNE,30,0.0,3.0,51,-99.99,,,-99.99,,2013-07-13 13:53:00,
2013-07-13 08:02:00,80.0,60.0,30.04,North,8,0.0,3.0,51,-99.99,,,-99.99,,2013-07-13 14:02:00,
2013-07-13 08:11:00,80.0,60.0,30.05,NNE,28,0.0,2.0,51,-99.99,,,-99.99,,2013-07-13 14:11:00,
2013-07-13 08:22:00,80.0,60.0,30.05,North,0,0.0,0.0,51,-99.99,,,-99.99,,2013-07-13 14:22:00,
2013-07-13 08:32:00,80.0,60.0,30.05,North,0,0.0,0.0,50,-99.99,,,-99.99,,2013-07-13 14:32:00,
2013-07-13 08:43:00,80.0,60.0,30.06,North,0,0.0,0.0,50,-99.99,,,-99.99,,2013-07-13 14:43:00,
2013-07-13 08:53:00,80.0,60.0,30.06,North,0,0.0,0.0,50,-99.99,,,-99.99,,2013-07-13 14:53:00,
2013-07-13 09:02:00,81.0,60.0,30.06,North,0,0.0,0.0,49,-99.99,,,-99.99,,2013-07-13 15:02:00,
2013-07-13 09:12:00,82.0,60.0,30.06,NNW,328,1.0,3.0,47,-99.99,,,-99.99,,2013-07-13 15:12:00,
2013-07-13 09:22:00,82.0,60.0,30.06,WNW,290,1.0,4.0,47,-99.99,,,-99.99,,2013-07-13 15:22:00,
2013-07-13 09:33:00,82.0,59.0,30.05,WSW,257,1.0,3.0,46,-99.99,,,-99.99,,2013-07-13 15:33:00,
2013-07-13 09:43:00,83.0,60.0,30.05,North,0,0.0,0.0,46,-99.99,,,-99.99,,2013-07-13 15:43:00,
2013-07-13 09:53:00,84.0,60.0,30.05,SE,136,2.0,5.0,44,-99.99,,,-99.99,,2013-07-13 15:53:00,
2013-07-13 10:02:00,83.0,59.0,30.05,SE,139,0.0,1.0,44,-99.99,,,-99.99,,2013-07-13 16:02:00,
2013-07-13 10:11:00,84.0,59.0,30.05,North,0,0.0,0.0,43,-99.99,,,-99.99,,2013-07-13 16:11:00,
2013-07-13 10:22:00,84.0,58.0,30.04,ESE,104,0.0,1.0,42,-99.99,,,-99.99,,2013-07-13 16:22:00,
2013-07-13 10:32:00,86.0,60.0,30.04,SE,131,0.0,2.0,41,-99.99,,,-99.99,,2013-07-13 16:32:00,
2013-07-13 10:43:00,86.0,60.0,30.04,SSW,207,2.0,6.0,41,-99.99,,,-99.99,,2013-07-13 16:43:00,
2013-07-13 10:53:00,86.0,59.0,30.04,SSW,193,4.0,7.0,40,-99.99,,,-99.99,,2013-07-13 16:53:00,
2013-07-13 11:01:00,86.0,58.0,30.04,WSW,255,2.0,7.0,39,-99.99,,,-99.99,,2013-07-13 17:01:00,
2013-07-13 11:12:00,87.0,59.0,30.03,ESE,103,4.0,10.0,39,-99.99,,,-99.99,,2013-07-13 17:12:00,
2013-07-13 11:22:00,88.0,59.0,30.03,SE,136,1.0,6.0,38,-99.99,,,-99.99,,2013-07-13 17:22:00,
2013-07-13 11:33:00,88.0,59.0,30.03,ESE,107,3.0,7.0,38,-99.99,,,-99.99,,2013-07-13 17:33:00,
2013-07-13 11:43:00,89.0,59.0,30.03,East,97,3.0,9.0,37,-99.99,,,-99.99,,2013-07-13 17:43:00,
2013-07-13 11:52:00,89.0,59.0,30.03,SSE,155,4.0,9.0,36,-99.99,,,-99.99,,2013-07-13 17:52:00,
2013-07-13 12:01:00,89.0,58.0,30.03,SSW,198,1.0,4.0,35,-99.99,,,-99.99,,2013-07-13 18:01:00,
2013-07-13 12:11:00,89.0,59.0,30.02,South,169,3.0,7.0,36,-99.99,,,-99.99,,2013-07-13 18:11:00,
2013-07-13 12:21:00,89.0,58.0,30.02,WSW,256,3.0,6.0,35,-99.99,,,-99.99,,2013-07-13 18:21:00,
2013-07-13 12:32:00,90.0,59.0,30.01,SSE,160,3.0,7.0,35,-99.99,,,-99.99,,2013-07-13 18:32:00,
2013-07-13 12:43:00,91.0,57.0,30.01,SE,131,4.0,7.0,32,-99.99,,,-99.99,,2013-07-13 18:43:00,
2013-07-13 12:53:00,91.0,57.0,30.01,SE,135,4.0,9.0,32,-99.99,,,-99.99,,2013-07-13 18:53:00,
2013-07-13 13:02:00,91.0,57.0,30.00,ENE,73,2.0,8.0,32,-99.99,,,-99.99,,2013-07-13 19:02:00,
2013-07-13 13:11:00,92.0,56.0,30.00,ESE,107,4.0,11.0,30,-99.99,,,-99.99,,2013-07-13 19:11:00,
2013-07-13 13:22:00,93.0,57.0,30.00,East,84,4.0,8.0,30,-99.99,,,-99.99,,2013-07-13 19:22:00,
2013-07-13 13:32:00,93.0,57.0,29.99,East,79,4.0,9.0,30,-99.99,,,-99.99,,2013-07-13 19:32:00,
2013-07-13 13:44:00,93.0,56.0,29.99,SE,131,5.0,10.0,29,-99.99,,,-99.99,,2013-07-13 19:44:00,
2013-07-13 13:52:00,93.0,55.0,29.98,East,100,3.0,9.0,28,-99.99,,,-99.99,,2013-07-13 19:52:00,
2013-07-13 14:01:00,95.0,55.0,29.98,NNE,23,5.0,10.0,26,-99.99,,,-99.99,,2013-07-13 20:01:00,
2013-07-13 14:11:00,95.0,54.0,29.97,SE,136,4.0,10.0,25,-99.99,,,-99.99,,2013-07-13 20:11:00,
2013-07-13 14:22:00,95.0,55.0,29.96,SE,124,4.0,9.0,26,-99.99,,,-99.99,,2013-07-13 20:22:00,
2013-07-13 14:33:00,95.0,52.0,29.96,East,101,5.0,9.0,24,-99.99,,,-99.99,,2013-07-13 20:33:00,
2013-07-13 14:43:00,95.0,54.0,29.95,ESE,108,3.0,6.0,25,-99.99,,,-99.99,,2013-07-13 20:43:00,
2013-07-13 14:52:00,95.0,54.0,29.95,SSW,198,3.0,10.0,25,-99.99,,,-99.99,,2013-07-13 20:52:00,
2013-07-13 15:02:00,96.0,53.0,29.95,ENE,63,6.0,11.0,24,-99.99,,,-99.99,,2013-07-13 21:02:00,
2013-07-13 15:12:00,98.0,54.0,29.94,NNE,20,5.0,10.0,23,-99.99,,,-99.99,,2013-07-13 21:12:00,
2013-07-13 15:22:00,97.0,53.0,29.94,ESE,117,5.0,10.0,23,-99.99,,,-99.99,,2013-07-13 21:22:00,
2013-07-13 15:32:00,98.0,56.0,29.93,East,98,5.0,9.0,25,-99.99,,,-99.99,,2013-07-13 21:32:00,
2013-07-13 15:42:00,97.0,53.0,29.93,South,174,4.0,9.0,23,-99.99,,,-99.99,,2013-07-13 21:42:00,
2013-07-13 15:53:00,97.0,53.0,29.92,ENE,68,2.0,7.0,23,-99.99,,,-99.99,,2013-07-13 21:53:00,
2013-07-13 16:01:00,97.0,53.0,29.92,ESE,114,5.0,11.0,23,-99.99,,,-99.99,,2013-07-13 22:01:00,
2013-07-13 16:12:00,96.0,53.0,29.92,SE,125,3.0,7.0,24,-99.99,,,-99.99,,2013-07-13 22:12:00,
2013-07-13 16:22:00,96.0,53.0,29.91,SSE,150,2.0,6.0,24,-99.99,,,-99.99,,2013-07-13 22:22:00,
2013-07-13 16:32:00,97.0,53.0,29.91,West,278,1.0,5.0,23,-99.99,,,-99.99,,2013-07-13 22:32:00,
2013-07-13 16:43:00,98.0,51.0,29.91,East,80,6.0,10.0,21,-99.99,,,-99.99,,2013-07-13 22:43:00,
2013-07-13 16:53:00,96.0,52.0,29.91,SSE,158,4.0,9.0,23,-99.99,,,-99.99,,2013-07-13 22:53:00,
2013-07-13 17:01:00,95.0,51.0,29.90,South,179,5.0,10.0,23,-99.99,,,-99.99,,2013-07-13 23:01:00,
2013-07-13 17:11:00,95.0,52.0,29.90,West,270,0.0,3.0,24,-99.99,,,-99.99,,2013-07-13 23:11:00,
2013-07-13 17:22:00,95.0,50.0,29.89,East,87,5.0,9.0,22,-99.99,,,-99.99,,2013-07-13 23:22:00,
2013-07-13 17:32:00,96.0,51.0,29.89,East,80,5.0,9.0,22,-99.99,,,-99.99,,2013-07-13 23:32:00,
2013-07-13 17:42:00,97.0,51.0,29.88,SE,132,5.0,11.0,21,-99.99,,,-99.99,,2013-07-13 23:42:00,
2013-07-13 17:53:00,97.0,52.0,29.88,SE,146,3.0,5.0,22,-99.99,,,-99.99,,2013-07-13 23:53:00,
2013-07-13 18:01:00,97.0,51.0,29.88,SSE,167,3.0,8.0,21,-99.99,,,-99.99,,2013-07-14 00:01:00,
2013-07-13 18:11:00,97.0,52.0,29.88,North,6,1.0,7.0,22,-99.99,,,-99.99,,2013-07-14 00:11:00,
2013-07-13 18:21:00,98.0,50.0,29.87,East,101,9.0,16.0,20,-99.99,,,-99.99,,2013-07-14 00:21:00,
2013-07-13 18:33:00,98.0,50.0,29.87,SE,143,8.0,13.0,20,-99.99,,,-99.99,,2013-07-14 00:33:00,
2013-07-13 18:42:00,97.0,49.0,29.87,ESE,105,7.0,13.0,20,-99.99,,,-99.99,,2013-07-14 00:42:00,
2013-07-13 18:53:00,97.0,51.0,29.87,East,93,5.0,10.0,21,-99.99,,,-99.99,,2013-07-14 00:53:00,
2013-07-13 19:02:00,97.0,49.0,29.86,East,84,6.0,14.0,20,-99.99,,,-99.99,,2013-07-14 01:02:00,
2013-07-13 19:11:00,97.0,49.0,29.87,ESE,108,8.0,13.0,20,-99.99,,,-99.99,,2013-07-14 01:11:00,
2013-07-13 19:22:00,97.0,49.0,29.88,ESE,110,6.0,11.0,20,-99.99,,,-99.99,,2013-07-14 01:22:00,
2013-07-13 19:32:00,96.0,50.0,29.88,ESE,111,6.0,10.0,21,-99.99,,,-99.99,,2013-07-14 01:32:00,
2013-07-13 19:43:00,96.0,50.0,29.88,East,98,7.0,12.0,21,-99.99,,,-99.99,,2013-07-14 01:43:00,
2013-07-13 19:52:00,96.0,50.0,29.88,East,101,6.0,10.0,21,-99.99,,,-99.99,,2013-07-14 01:52:00,
2013-07-13 20:01:00,95.0,49.0,29.88,East,100,7.0,12.0,21,-99.99,,,-99.99,,2013-07-14 02:01:00,
2013-07-13 20:11:00,95.0,50.0,29.88,ESE,107,5.0,8.0,22,-99.99,,,-99.99,,2013-07-14 02:11:00,
2013-07-13 20:22:00,95.0,49.0,29.89,East,87,5.0,11.0,21,-99.99,,,-99.99,,2013-07-14 02:22:00,
2013-07-13 20:32:00,94.0,48.0,29.89,ESE,107,7.0,14.0,21,-99.99,,,-99.99,,2013-07-14 02:32:00,
2013-07-13 20:43:00,94.0,48.0,29.90,ENE,72,10.0,19.0,21,-99.99,,,-99.99,,2013-07-14 02:43:00,
2013-07-13 20:53:00,94.0,48.0,29.90,East,84,9.0,16.0,21,-99.99,,,-99.99,,2013-07-14 02:53:00,
2013-07-13 21:01:00,93.0,47.0,29.91,East,96,10.0,16.0,21,-99.99,,,-99.99,,2013-07-14 03:01:00,
2013-07-13 21:11:00,93.0,47.0,29.91,ESE,103,9.0,14.0,21,-99.99,,,-99.99,,2013-07-14 03:11:00,
2013-07-13 21:22:00,92.0,48.0,29.91,ENE,77,9.0,16.0,22,-99.99,,,-99.99,,2013-07-14 03:22:00,
2013-07-13 21:32:00,92.0,48.0,29.92,NE,55,8.0,16.0,22,-99.99,,,-99.99,,2013-07-14 03:32:00,
2013-07-13 21:43:00,92.0,48.0,29.92,ENE,65,10.0,18.0,22,-99.99,,,-99.99,,2013-07-14 03:43:00,
2013-07-13 21:53:00,92.0,46.0,29.93,East,89,9.0,16.0,21,-99.99,,,-99.99,,2013-07-14 03:53:00,
2013-07-13 22:02:00,91.0,46.0,29.94,East,79,10.0,15.0,21,-99.99,,,-99.99,,2013-07-14 04:02:00,
2013-07-13 22:11:00,91.0,46.0,29.94,East,82,9.0,13.0,21,-99.99,,,-99.99,,2013-07-14 04:11:00,
2013-07-13 22:22:00,91.0,46.0,29.94,East,83,8.0,14.0,21,-99.99,,,-99.99,,2013-07-14 04:22:00,
2013-07-13 22:32:00,91.0,46.0,29.94,ESE,107,7.0,13.0,21,-99.99,,,-99.99,,2013-07-14 04:32:00,
2013-07-13 22:42:00,90.0,45.0,29.95,East,84,8.0,14.0,21,-99.99,,,-99.99,,2013-07-14 04:42:00,
2013-07-13 22:53:00,90.0,45.0,29.95,East,87,8.0,14.0,21,-99.99,,,-99.99,,2013-07-14 04:53:00,
2013-07-13 23:02:00,90.0,46.0,29.95,ENE,77,8.0,13.0,22,-99.99,,,-99.99,,2013-07-14 05:02:00,
2013-07-13 23:11:00,90.0,46.0,29.95,ENE,75,10.0,16.0,22,-99.99,,,-99.99,,2013-07-14 05:11:00,
2013-07-13 23:23:00,89.0,46.0,29.95,ESE,115,8.0,14.0,23,-99.99,,,-99.99,,2013-07-14 05:23:00,
2013-07-13 23:32:00,89.0,47.0,29.96,ESE,113,9.0,15.0,24,-99.99,,,-99.99,,2013-07-14 05:32:00,
2013-07-13 23:43:00,89.0,49.0,29.96,ESE,105,9.0,14.0,25,-99.99,,,-99.99,,2013-07-14 05:43:00,
2013-07-13 23:53:00,88.0,49.0,29.96,East,82,10.0,17.0,26,-99.99,,,-99.99,,2013-07-14 05:53:00,